SCP
0 0 0 0 0 0 0 0 1 1 0 0 0 0 0 0 0 0 0 0 0 0 0 0 0 0 0 0 0 0 0 0 0 0 0 0 0 0 0 0 0 0 0
0 0 0 0 0 0 0 1 1 1 1 0 0 0 0 0 0 0 0 0 0 0 0 0 0 0 0 0 0 0 0 0 0 0 0 0 0 0 0 0 0 0 0
0 0 0 0 0 1 1 1 1 1 1 1 0 0 0 0 0 0 0 0 0 0 0 0 0 0 0 0 0 0 0 0 0 0 0 0 0 0 0 0 0 0 0
0 0 0 0 1 1 1 1 1 1 1 1 0 0 0 0 0 0 0 0 0 0 0 0 0 0 0 0 0 0 0 0 0 0 0 0 0 0 0 0 0 0 0
0 0 0 1 1 1 1 1 1 1 1 1 0 0 0 0 0 0 0 0 0 0 0 0 0 0 0 0 0 0 0 0 0 0 0 0 0 0 0 0 0 0 0
0 0 0 1 1 1 1 1 1 1 0 0 0 0 0 0 0 0 0 0 0 0 0 0 0 0 0 0 0 0 0 0 0 0 0 0 0 0 0 0 0 0 0
0 0 0 0 1 1 1 1 1 1 0 0 0 0 0 0 0 0 0 0 0 0 0 0 0 0 0 0 0 0 0 0 0 0 0 0 0 0 0 0 0 0 0
0 0 0 0 0 1 1 1 1 1 1 0 0 0 0 0 0 0 0 0 0 0 0 0 0 0 0 0 0 0 0 0 0 0 0 0 0 0 0 0 0 0 0
0 0 0 0 0 0 0 0 0 0 0 0 0 0 0 0 0 0 0 0 0 0 0 0 0 0 0 0 0 0 0 0 0 0 0 0 0 0 0 0 0 0 0
0 0 0 0 0 0 0 0 0 0 0 0 0 0 0 0 0 0 0 0 0 0 0 0 0 0 0 0 0 0 0 0 0 0 0 0 0 0 0 0 0 0 0
0 0 0 0 0 0 0 0 0 0 0 0 0 0 0 0 0 0 0 0 0 0 0 0 0 0 0 0 0 0 0 0 0 0 0 0 0 0 0 0 0 0 0
0 0 1 1 1 1 0 0 0 0 0 0 0 0 0 0 0 0 0 0 0 0 0 0 0 0 0 0 0 0 0 0 0 0 0 0 0 0 0 0 0 0 0
1 1 1 1 1 1 1 1 0 0 0 0 0 0 0 0 0 0 0 0 0 0 0 0 0 0 0 0 0 0 0 0 0 0 0 0 0 0 0 0 0 0 0
1 1 1 1 1 1 1 1 1 1 1 0 0 0 0 0 0 0 0 0 0 0 0 0 0 0 0 0 0 0 0 0 0 0 0 0 0 0 0 0 0 0 0
0 0 1 1 1 1 1 1 1 1 1 1 0 0 0 0 0 0 0 0 0 0 0 0 0 0 0 0 0 0 0 0 0 0 0 0 0 0 0 0 0 0 0
0 0 1 1 1 1 1 1 1 1 1 1 1 0 0 0 0 0 0 0 0 0 0 0 0 0 0 0 0 0 0 0 0 0 0 0 0 0 0 0 0 0 0
0 0 0 1 1 1 1 1 1 1 1 1 1 1 0 0 0 0 0 0 0 0 0 0 0 0 0 0 0 0 0 0 0 0 0 0 0 0 0 0 0 0 0
0 0 0 0 1 1 1 1 1 1 1 1 1 1 1 0 0 0 0 0 0 0 0 0 0 0 0 0 0 0 0 0 0 0 0 0 0 0 0 0 0 0 0
0 0 0 0 0 0 1 1 1 1 1 1 1 1 0 0 0 0 0 0 0 0 0 0 0 0 0 0 0 0 0 0 0 0 0 0 0 0 0 0 0 0 0
0 0 0 0 0 0 1 1 2 2 1 1 1 1 0 0 0 0 0 0 0 0 0 0 0 0 0 0 0 0 0 0 0 0 1 1 1 1 1 0 0 0 0
0 0 0 0 0 0 0 1 2 2 2 2 1 1 0 0 0 0 0 0 0 0 0 0 0 0 0 0 0 0 0 0 0 0 1 1 1 1 1 0 0 0 0
0 0 0 0 0 0 0 1 2 2 2 2 1 1 1 0 0 0 0 0 1 0 0 0 0 0 0 0 0 0 0 0 0 0 0 0 0 0 0 0 0 0 0
0 0 0 0 0 0 0 0 1 2 3 2 2 1 1 1 0 0 0 1 1 1 0 0 0 0 0 0 0 0 0 0 0 0 0 0 0 0 0 0 0 0 0
0 0 0 0 0 0 0 0 1 2 3 3 2 2 1 1 1 1 1 1 1 1 1 0 0 0 0 0 0 0 0 0 0 0 0 0 0 0 0 0 0 0 0
0 0 0 0 0 0 0 0 1 2 3 3 3 2 1 1 1 1 1 1 1 1 1 1 0 0 0 0 0 0 0 0 0 0 0 0 0 0 0 0 0 0 0
0 0 0 0 0 0 0 0 1 3 3 3 2 2 1 1 1 1 1 1 1 1 1 1 1 0 0 0 0 0 0 0 0 0 0 0 0 0 0 0 0 0 0
Wind_Speed
10 13 14 14 14 14 13 13 12 12 12 12 12 12 12 11 11 11 11 10 10 11 12 11 11 12 12 11 11 11 11 11 10 10 9 9 9 10 10 8 6 7 9
13 14 14 14 14 14 13 13 12 11 11 12 12 12 11 11 11 11 10 10 10 10 11 11 11 11 11 11 11 10 10 10 9 8 7 7 8 8 8 8 7 7 8
14 14 15 13 14 14 13 12 12 11 11 11 11 11 11 11 10 10 9 9 9 10 10 10 10 10 9 9 9 9 9 8 8 6 2 4 6 7 6 6 6 6 7
14 14 14 13 13 13 13 12 11 11 11 11 10 10 10 10 9 9 9 8 8 8 9 9 8 8 8 8 8 8 8 7 6 2 2 4 4 6 5 5 5 5 5
13 12 13 12 13 13 13 12 11 11 11 10 10 9 9 9 8 8 7 7 7 7 8 8 8 7 7 6 6 6 6 6 3 1 3 3 3 5 4 4 4 4 4
12 12 13 11 12 13 12 12 11 10 10 10 9 8 8 8 8 7 7 7 6 6 6 6 7 6 5 5 5 5 5 3 1 2 3 3 3 4 4 3 3 3 3
11 11 12 10 10 11 11 11 11 10 9 9 8 8 7 7 7 6 6 6 6 5 5 5 5 5 4 4 4 4 3 2 2 2 2 2 3 4 3 3 3 3 3
10 10 11 9 8 9 9 9 9 9 8 8 7 7 7 7 6 6 5 5 4 4 4 4 4 4 3 3 3 3 2 2 2 2 1 1 3 4 3 3 3 3 3
8 8 8 9 9 8 7 7 7 7 7 7 6 6 5 5 5 5 4 4 3 4 3 3 3 2 2 2 2 2 2 2 3 2 2 2 3 5 4 3 3 3 3
6 6 6 7 8 8 8 7 6 6 6 6 6 6 5 5 5 4 3 3 2 2 2 2 2 1 1 1 1 1 1 3 3 2 2 1 3 5 4 4 3 3 3
4 4 4 5 5 6 6 6 6 6 5 6 6 6 5 5 4 4 3 2 1 1 1 1 1 0 1 1 1 1 3 3 3 2 2 2 4 5 5 4 4 4 4
4 4 3 4 4 4 4 5 4 4 5 5 4 5 4 3 2 2 3 2 1 1 1 1 1 2 3 2 2 3 2 3 3 2 1 2 4 5 5 5 5 5 5
3 3 3 3 3 3 3 3 2 2 3 4 4 5 4 3 2 3 2 3 3 3 3 2 3 3 2 2 2 2 3 3 2 2 2 2 5 6 6 6 6 6 7
3 3 2 3 3 3 3 3 3 2 2 2 3 4 3 3 3 3 2 2 2 2 2 2 2 3 3 3 3 4 4 3 3 2 2 2 5 7 7 7 7 7 7
1 2 3 2 3 3 3 2 2 2 2 2 2 2 3 3 3 3 2 2 3 3 3 3 3 3 3 3 3 4 4 4 4 4 3 3 5 7 8 8 8 8 8
1 2 2 3 3 3 3 2 2 2 2 2 2 2 3 3 3 3 3 3 3 3 3 3 4 4 3 3 4 4 5 5 5 5 5 4 4 6 8 9 9 9 9
1 1 1 2 3 3 3 3 2 2 2 2 2 2 3 3 3 3 3 3 3 3 4 4 4 3 3 3 4 5 5 5 5 6 6 5 4 4 6 8 9 9 9
2 2 1 1 2 2 3 3 2 2 2 2 1 2 2 3 3 3 3 3 3 3 3 3 3 3 3 4 4 4 4 4 6 6 5 5 5 4 4 5 7 8 9
4 3 3 2 1 2 2 2 2 1 1 0 0 1 2 2 3 3 3 3 3 3 3 3 3 4 4 4 4 4 5 5 5 5 6 6 5 5 5 3 5 6 8
4 4 3 3 3 2 1 2 1 1 1 0 0 1 1 2 2 2 2 3 3 3 3 3 4 4 4 4 4 5 5 5 5 5 6 5 4 5 5 5 4 3 5
6 5 5 4 4 3 1 1 2 1 1 0 0 1 1 1 2 2 2 3 2 2 3 3 3 4 3 3 3 4 5 6 6 5 4 5 4 4 5 4 4 3 3
6 6 5 5 4 3 2 1 1 1 1 1 0 0 1 1 1 2 2 2 2 2 3 2 3 3 3 2 3 4 4 4 4 4 4 4 4 4 4 4 4 4 3
6 6 5 5 5 4 3 2 1 0 0 0 1 1 1 2 2 2 2 2 2 2 2 2 2 2 3 3 3 3 4 4 4 3 4 4 4 4 4 4 4 4 4
6 6 5 5 4 4 3 2 1 1 1 2 2 1 1 1 2 2 3 2 2 2 3 3 3 3 3 3 3 3 4 4 4 4 3 3 4 5 5 4 4 4 4
7 6 6 5 5 5 3 2 1 1 2 2 2 2 2 2 2 2 3 2 2 2 3 3 3 3 2 3 2 3 3 4 5 5 6 5 4 4 5 5 5 4 4
7 6 6 5 5 5 4 3 2 2 2 3 3 3 2 2 2 3 3 3 3 3 3 3 3 3 3 3 3 2 2 2 3 4 6 7 6 5 5 4 4 4 4
Wind_Direction
158 153 147 148 144 139 134 130 127 124 124 125 125 122 120 117 112 108 103 101 101 99 96 95 93 90 86 83 79 77 76 72 68 66 68 69 68 71 70 62 53 69 61
151 152 146 148 145 141 136 132 130 128 129 129 127 123 120 118 115 110 104 101 102 101 98 95 94 92 88 83 80 78 77 73 67 60 58 80 74 66 67 61 47 52 53
150 151 150 146 143 141 139 137 137 135 131 129 129 125 122 119 116 112 106 102 102 101 100 98 96 94 91 87 82 79 77 72 65 54 37 75 77 63 61 60 56 52 50
150 152 152 142 142 141 141 141 142 140 136 133 132 130 128 124 120 116 110 105 104 104 103 101 99 97 94 89 83 79 76 69 59 15 60 58 63 57 48 51 46 44 41
149 152 142 143 144 144 144 144 142 140 140 139 137 135 134 129 124 119 115 110 106 105 105 104 102 98 94 90 84 80 75 69 53 3 60 54 57 50 35 39 39 33 27
150 151 144 146 146 147 147 148 146 144 144 145 142 141 137 131 126 123 119 115 110 108 106 103 100 97 94 90 83 76 71 60 275 58 54 45 45 45 21 22 26 23 20
150 152 150 147 147 149 150 149 150 149 148 150 149 146 139 134 131 128 125 121 116 115 110 104 99 95 92 84 75 67 61 19 338 30 29 33 37 15 1 358 14 17 10
149 152 151 144 145 151 153 151 151 151 149 149 146 142 138 134 133 128 127 127 124 123 120 115 103 95 85 74 62 55 52 322 321 359 357 7 19 334 333 349 360 1 358
144 151 156 162 160 154 151 150 150 148 145 143 141 135 130 131 129 122 120 129 135 135 133 127 110 102 89 74 56 47 41 326 302 336 330 337 354 317 318 328 332 334 328
140 150 158 165 169 169 164 151 148 144 145 142 138 132 129 131 134 131 149 133 138 145 144 135 120 120 103 78 50 29 298 267 294 305 298 348 328 309 310 316 321 318 310
135 147 162 167 170 169 168 156 159 152 151 154 151 142 160 176 174 170 159 128 131 120 135 153 164 171 216 182 198 269 261 279 303 300 296 342 305 305 306 310 306 305 298
149 154 164 174 173 172 166 170 179 181 176 186 178 175 186 190 187 197 146 166 167 174 202 217 224 221 247 246 209 231 267 289 288 285 302 316 295 298 301 303 301 298 295
159 158 174 181 183 182 175 177 181 189 191 197 195 192 193 194 194 208 197 189 202 212 224 215 227 248 263 280 287 280 288 289 285 285 296 278 283 290 294 297 296 292 293
162 169 180 189 186 194 188 187 188 194 202 206 208 212 211 212 214 218 226 227 226 229 241 247 249 260 266 271 276 281 284 281 280 284 298 278 273 280 286 291 290 287 287
181 190 188 189 197 194 194 197 197 200 216 215 214 222 232 236 234 228 233 236 240 241 242 249 255 260 265 271 273 274 278 280 279 277 277 264 260 272 279 284 285 284 283
255 231 200 192 201 201 196 203 206 211 217 226 228 237 236 248 254 240 236 240 247 250 252 251 260 266 269 272 273 274 275 276 276 277 278 274 252 260 270 277 282 281 282
298 271 235 210 210 212 210 207 210 214 218 228 239 249 253 257 262 261 254 250 254 254 250 250 252 260 270 271 271 272 273 275 277 278 278 278 273 255 258 271 277 280 281
355 346 331 283 227 225 219 215 214 214 215 228 243 260 265 268 271 263 264 265 273 270 259 254 252 255 261 267 272 273 271 272 274 274 274 273 273 274 260 261 274 278 279
11 7 2 349 295 244 225 214 209 206 200 238 287 309 301 288 283 272 270 276 279 269 265 266 264 263 267 271 276 279 276 271 271 269 267 271 270 272 274 265 259 274 279
20 20 17 8 351 310 235 202 180 166 177 193 255 318 309 296 293 284 289 296 292 278 274 272 270 271 269 271 278 279 277 271 266 265 266 266 266 269 272 276 272 267 275
25 22 19 13 3 357 322 224 206 210 208 196 328 346 314 314 305 289 291 292 297 286 290 288 277 276 274 277 280 281 272 260 257 257 261 263 262 266 270 274 277 282 279
22 16 16 13 9 2 346 310 248 222 207 190 156 325 325 317 312 301 297 296 301 295 297 302 305 290 279 262 274 287 280 268 246 258 258 264 272 274 274 274 272 273 282
16 7 4 5 7 5 356 355 354 264 230 269 301 293 300 300 302 303 294 293 297 285 286 288 286 289 290 278 275 270 278 280 304 253 256 260 265 266 270 271 269 269 273
7 1 4 5 7 8 5 8 18 12 315 293 296 297 310 306 311 311 300 293 290 285 288 285 280 279 280 284 285 280 288 297 286 287 269 266 274 272 270 268 264 265 269
7 5 5 10 14 14 13 5 357 347 322 321 321 319 322 323 323 327 314 301 293 286 289 292 288 278 274 277 275 285 286 290 283 283 287 286 279 273 273 272 271 271 273
11 10 9 13 15 11 13 12 7 352 347 353 352 347 337 337 340 348 340 329 317 306 296 292 287 280 276 280 282 284 283 281 283 278 279 289 288 283 277 272 272 275 278